Theta_e
334 333 332 332 333 333 334 334 334 334 334 334 334 335 334 335 339 341 342 344 347 350 351 351 351 348 345 347 349 349 344 343 343 343 343 343 343 343 344 345 346 344 353 350
335 333 334 334 334 333 333 333 334 334 334 334 335 333 335 338 343 345 347 348 350 350 352 353 354 347 344 344 344 348 345 343 343 343 344 343 343 343 345 347 349 344 352 351
336 333 333 336 334 334 334 334 334 334 335 336 336 336 337 339 341 344 345 346 348 352 353 354 354 354 352 346 344 344 344 343 343 343 343 342 343 344 354 357 349 346 350 350
331 330 333 331 330 331 331 331 331 333 334 334 334 334 337 334 334 336 339 343 345 346 354 354 355 354 348 351 345 344 343 343 343 343 343 344 343 346 354 355 353 348 351 349
325 325 324 324 324 328 332 332 334 334 334 334 334 336 339 333 332 333 335 339 344 346 354 355 357 356 352 350 346 345 345 345 344 343 343 344 347 353 356 356 350 351 349 346
326 326 327 329 331 330 331 331 334 334 334 334 334 337 339 334 332 332 333 334 341 345 349 356 357 357 356 353 347 351 353 358 356 352 347 351 356 357 355 351 351 348 346 343
327 327 326 326 328 327 329 331 329 330 331 332 335 333 332 331 331 332 332 332 336 343 345 349 356 357 356 356 356 356 357 348 351 353 358 358 358 354 353 351 349 347 343 334
326 327 327 327 326 326 326 326 326 327 328 330 329 328 329 329 329 329 330 330 333 337 345 349 352 358 357 358 359 358 355 350 354 352 356 359 354 353 350 348 346 342 333 325
326 325 329 327 326 326 324 324 325 325 327 328 327 327 328 328 328 328 329 330 332 335 338 347 351 350 354 356 357 355 354 353 354 350 350 352 350 348 346 344 342 336 325 322
326 325 325 325 324 322 321 323 322 321 322 323 325 325 324 326 327 328 329 329 332 333 336 340 349 348 353 353 354 353 353 351 350 350 351 346 343 343 343 340 338 336 332 331
324 323 322 321 320 320 320 320 320 320 320 322 323 323 323 324 326 328 328 329 331 332 333 337 342 345 350 351 352 350 348 349 348 346 344 345 337 335 333 330 329 329 326 323
322 320 320 320 319 320 320 319 320 320 320 320 321 321 322 323 326 327 328 328 328 332 333 332 333 340 344 347 349 349 345 345 341 343 342 338 329 322 318 317 317 317 317 316
319 318 319 319 319 319 320 321 322 322 322 322 322 322 322 323 324 324 327 328 328 330 332 334 331 335 341 343 346 346 345 342 340 338 331 324 320 318 318 318 317 315 317 315
319 319 319 319 319 319 320 320 319 320 321 322 322 323 324 324 324 325 326 326 328 332 332 330 332 334 339 340 344 345 345 342 338 330 324 321 320 320 320 320 318 317 316 315
318 318 319 319 319 319 319 319 320 320 320 321 322 324 325 325 326 327 327 329 331 332 329 327 329 334 335 336 341 343 343 338 330 325 324 324 323 323 322 321 318 316 315 312
318 319 319 320 319 319 320 320 321 321 321 321 321 322 325 327 327 327 328 331 332 331 330 328 330 332 333 334 336 338 337 332 329 328 327 326 324 324 321 317 316 315 313 311
318 319 318 317 318 320 320 319 319 320 321 322 321 321 324 326 326 327 328 331 331 330 329 328 330 331 331 330 333 333 333 332 330 329 326 325 324 322 317 315 316 313 311 312
318 318 318 318 318 320 318 318 319 320 320 321 322 323 324 325 326 327 327 329 332 329 326 329 329 330 330 330 331 330 328 329 328 326 324 323 319 318 318 317 314 312 311 310
316 315 315 316 318 317 318 317 317 319 320 321 322 323 324 325 326 327 327 329 328 329 326 327 326 326 327 327 327 328 327 325 321 324 321 320 320 319 317 312 311 310 310 310
314 317 317 318 317 317 317 317 317 318 320 320 322 323 325 326 326 325 327 328 328 328 326 326 326 325 325 324 324 322 321 321 320 320 320 320 317 312 310 310 309 309 311 311
315 316 317 316 315 317 320 320 320 320 320 322 323 324 325 325 325 326 327 326 327 326 326 326 325 325 324 324 324 322 316 317 319 319 316 311 309 309 309 310 311 311 310 310
314 317 315 313 315 320 322 322 321 321 321 322 323 324 325 325 326 327 328 326 325 325 325 324 322 324 321 320 318 317 318 317 312 310 310 309 310 309 309 308 308 308 308 308
314 316 314 316 318 320 320 319 320 321 322 322 323 325 325 325 325 326 325 325 324 323 321 321 319 319 319 317 315 312 309 307 309 309 308 309 309 309 308 307 306 305 305 305
313 316 316 316 317 317 318 318 320 321 320 321 321 323 325 325 325 325 324 323 323 320 318 320 316 317 314 312 312 310 307 307 306 306 306 308 308 307 306 306 304 302 301 303
314 314 317 318 317 317 317 318 320 317 318 318 318 321 324 324 324 322 320 317 315 315 315 315 315 314 311 309 308 307 306 304 303 303 303 302 303 304 305 305 305 302 303 305
314 315 315 316 318 318 318 319 319 318 317 318 315 316 320 320 319 317 316 316 316 317 317 312 308 309 309 309 309 308 308 306 307 307 307 307 306 305 305 305 303 304 305 305
316 314 315 315 316 316 318 318 318 317 317 317 318 315 317 316 316 316 316 317 314 308 306 309 310 311 311 311 311 310 309 310 309 309 308 308 307 307 305 305 304 303 303 304
Wind_Speed
14 11 11 13 15 14 15 14 16 16 17 17 12 12 15 15 17 18 15 13 10 12 19 20 22 23 23 22 24 25 29 29 30 29 27 24 22 19 19 19 17 16 14 14
15 13 14 18 17 17 18 18 20 19 21 9 5 9 11 13 14 15 15 15 15 12 15 21 22 25 22 25 26 27 31 32 29 28 27 26 22 18 18 18 18 17 16 16
17 15 14 17 18 22 21 20 18 16 11 9 9 8 9 10 11 13 16 17 18 16 12 15 20 20 22 23 26 28 29 31 32 30 29 27 23 19 16 15 18 17 18 16
14 13 20 14 12 14 16 16 12 8 7 5 8 12 2 8 13 16 18 20 21 19 13 11 13 17 21 20 25 26 26 26 28 32 31 27 23 21 16 15 15 18 15 14
12 12 17 19 10 9 8 9 5 5 2 6 10 10 10 10 15 16 19 20 22 22 14 11 10 11 15 20 23 24 24 25 25 25 24 23 20 18 15 17 16 14 12 10
12 14 16 2 8 6 6 14 10 4 4 7 12 9 6 21 21 20 20 21 22 22 18 11 10 10 13 17 21 21 21 17 18 18 20 18 17 17 17 15 13 9 9 10
14 14 13 4 3 3 11 2 9 7 9 10 8 11 20 20 20 19 21 22 22 20 18 16 12 11 12 14 18 18 18 19 19 16 14 17 18 17 17 14 12 12 10 9
13 16 19 8 2 9 8 9 11 11 9 9 11 15 16 17 17 18 20 21 20 19 18 15 13 11 11 13 13 18 23 21 21 22 16 17 18 17 16 15 13 10 8 7
8 4 6 5 6 6 12 12 9 12 14 14 16 16 17 19 19 19 19 20 19 19 19 15 13 11 12 15 19 18 22 26 24 21 19 16 16 16 14 11 8 7 9 4
13 14 17 11 14 16 14 12 17 19 19 19 18 18 20 20 20 20 20 21 20 20 20 19 13 13 11 17 20 22 25 27 24 24 22 17 13 14 9 8 8 8 3 4
15 19 25 28 25 21 22 23 23 25 26 24 23 24 23 23 22 20 20 20 20 20 20 20 17 15 13 22 23 25 27 27 27 26 24 24 22 22 18 14 13 8 8 6
11 18 18 22 26 26 28 29 29 27 27 27 27 29 28 26 23 21 21 21 22 21 22 21 19 16 16 21 25 31 31 29 26 26 26 26 23 21 14 10 9 7 6 5
19 23 26 27 28 29 31 25 21 22 23 25 27 28 29 29 26 25 23 22 23 23 21 19 19 18 16 17 32 35 36 32 30 32 32 32 27 22 20 18 12 8 7 5
15 17 23 24 26 26 25 27 29 28 27 27 27 28 27 26 25 24 24 24 23 23 22 21 22 19 17 19 36 40 37 37 38 36 33 30 27 26 22 19 15 12 9 6
17 18 23 27 28 28 28 29 30 29 28 27 26 26 24 23 22 22 22 21 21 20 21 21 23 20 17 19 41 43 39 36 33 32 31 27 24 20 18 15 14 11 7 4
23 25 27 27 28 28 27 27 28 29 28 28 28 26 23 20 19 18 17 17 17 17 18 19 20 19 18 24 36 42 41 39 37 34 29 26 23 20 17 15 12 9 7 5
26 26 25 31 29 28 27 27 29 30 28 29 30 28 25 21 19 18 16 17 16 17 19 20 19 18 22 26 32 39 44 42 38 34 21 22 25 21 17 13 10 7 5 4
22 24 26 29 31 27 29 32 31 33 30 28 28 27 25 23 20 17 15 15 17 18 19 18 18 19 24 26 27 21 19 28 27 29 27 26 22 18 15 12 10 8 5 6
23 34 31 31 30 33 37 35 36 33 31 27 26 26 23 22 19 15 15 14 19 17 17 15 12 18 23 24 22 20 25 22 19 23 23 19 16 15 14 12 10 9 8 7
34 28 25 28 28 31 36 35 31 31 26 25 23 21 21 19 17 16 14 17 17 16 14 18 17 22 18 19 17 13 13 16 17 16 15 16 14 13 15 13 9 8 9 9
30 29 26 27 33 35 24 22 20 17 17 18 17 17 16 16 16 16 14 17 18 17 18 21 17 23 24 24 17 17 15 12 13 13 13 14 13 10 11 9 8 7 8 8
35 29 27 31 34 21 16 13 9 6 6 11 14 16 15 15 16 16 15 17 14 16 16 22 17 20 19 19 21 18 13 13 12 14 13 14 13 11 10 10 10 10 9 9
28 23 28 37 28 21 18 19 16 12 9 10 14 15 16 15 17 20 19 16 13 21 17 22 22 23 21 15 16 17 16 17 16 15 14 12 13 13 11 11 12 12 12 12
24 25 17 21 20 23 26 22 18 18 16 14 11 10 10 12 13 16 13 16 24 29 31 24 27 24 21 18 16 16 16 16 16 16 16 16 15 15 15 13 13 13 13 12
14 18 20 20 22 24 22 23 20 19 18 22 17 6 11 8 11 14 19 34 34 34 33 29 26 24 21 18 19 19 19 19 19 19 19 18 18 17 16 14 12 12 12 10
12 14 17 21 20 17 17 20 20 18 22 24 18 9 9 19 27 40 37 33 26 24 30 28 26 23 23 22 21 20 20 23 19 16 15 14 14 15 14 13 12 9 8 7
11 13 14 15 18 21 22 20 22 22 27 21 25 26 34 38 36 36 30 25 25 27 32 25 23 24 23 22 19 18 19 16 16 15 14 14 12 12 12 11 9 8 7 5
Wind_Direction
268 281 280 276 277 270 260 259 271 289 296 300 326 320 319 313 323 328 331 330 313 262 229 221 212 211 208 210 208 210 218 220 220 222 226 229 235 250 251 248 242 241 245 270
263 265 268 266 263 262 261 266 272 274 277 315 329 310 314 318 327 334 337 335 328 311 255 236 227 217 218 209 211 210 219 219 219 222 226 226 231 257 250 237 226 235 243 261
263 269 274 267 258 251 254 262 273 278 309 346 333 340 320 342 348 354 351 348 338 322 292 252 239 233 224 219 212 216 220 220 220 220 224 230 246 247 231 213 217 224 242 265
267 276 255 266 302 313 287 281 292 282 272 316 319 310 193 21 6 359 355 348 343 331 312 273 252 234 219 214 215 217 218 219 220 225 230 237 238 231 217 201 205 227 246 263
251 243 256 268 258 242 271 266 186 270 249 327 334 303 191 19 0 348 347 350 349 347 323 302 264 242 221 211 212 211 212 215 216 215 214 218 216 210 197 198 216 229 242 263
239 250 261 73 46 26 277 257 33 355 315 321 328 275 89 346 341 334 335 340 346 349 349 322 294 257 227 215 210 210 201 202 202 203 204 204 196 194 194 210 210 216 234 258
232 251 254 348 12 321 252 6 347 336 321 315 315 320 311 322 322 322 325 331 336 338 336 338 313 271 242 221 213 202 193 200 198 189 191 185 190 197 203 191 203 219 238 247
237 259 260 35 227 264 5 332 323 317 311 312 310 309 311 316 322 326 327 328 330 330 328 330 322 292 255 231 222 195 200 191 191 176 175 189 194 191 184 192 202 222 225 241
298 274 80 30 10 338 319 309 321 320 307 305 305 306 305 308 314 317 323 327 328 321 320 316 309 307 262 225 209 188 189 180 178 177 179 189 177 182 188 171 192 199 223 241
278 259 278 317 296 298 302 301 298 295 292 290 289 295 300 299 301 304 309 316 318 320 313 308 303 295 263 231 210 200 188 187 182 176 167 171 163 150 159 169 175 168 157 177
274 281 287 282 289 297 301 294 292 292 286 282 283 285 288 289 288 290 298 305 308 308 309 302 302 285 256 237 223 208 187 178 172 174 187 184 166 161 170 182 160 161 156 174
275 297 293 288 289 289 288 293 292 285 280 280 278 278 279 278 278 283 289 296 300 299 302 304 291 284 279 243 229 194 182 177 175 183 176 177 179 163 165 182 197 197 211 221
298 293 289 290 286 283 282 282 287 290 288 285 281 279 275 273 272 278 279 287 290 291 289 292 288 279 279 255 208 207 197 192 188 177 173 174 172 171 164 177 196 206 224 245
294 296 289 286 288 295 292 287 287 285 283 282 282 285 281 272 271 271 271 279 284 283 284 290 286 279 269 257 211 214 208 194 183 178 175 174 176 179 179 181 183 187 202 217
294 291 289 290 288 285 285 285 283 280 279 279 281 279 280 272 272 273 274 273 275 273 276 286 282 279 278 262 215 210 200 190 183 175 178 183 176 171 166 160 166 174 171 206
301 296 297 298 288 286 289 292 288 283 277 274 274 275 276 275 272 272 270 270 269 274 273 281 279 272 280 255 205 201 193 182 180 182 178 172 171 170 168 174 180 189 175 182
308 303 303 301 307 290 285 290 291 286 282 274 268 269 269 268 269 269 271 268 259 269 268 278 277 274 257 219 185 182 182 178 178 172 172 175 175 177 188 187 192 191 197 260
305 304 305 300 297 286 291 289 287 282 275 270 266 259 262 261 261 265 270 264 250 265 278 267 265 256 220 201 193 198 175 178 170 174 168 174 183 188 193 190 196 190 209 210
320 313 304 306 298 299 297 292 289 280 270 264 261 252 254 256 255 257 263 248 246 247 262 260 243 176 164 168 163 161 156 161 149 167 177 184 188 194 198 188 173 188 188 220
333 327 319 311 314 309 302 292 285 274 261 253 251 245 248 247 244 247 248 242 242 237 253 227 211 195 194 188 189 175 167 171 177 175 170 181 179 177 180 171 174 178 196 190
331 326 329 328 323 324 314 307 300 275 245 237 233 236 238 238 236 231 229 236 233 237 241 211 200 199 195 188 182 158 138 151 162 176 174 177 172 165 163 169 172 180 179 180
349 343 342 333 335 342 342 332 331 319 259 236 242 243 241 236 225 221 217 226 235 237 221 208 204 208 171 137 142 142 178 175 157 156 153 152 155 157 158 163 164 163 165 166
359 345 354 353 13 19 27 30 25 12 344 298 263 252 245 239 226 216 209 213 210 188 187 158 138 139 140 148 149 153 157 150 140 140 141 139 138 137 145 145 148 149 146 141
351 356 7 13 6 12 17 16 12 15 8 351 321 246 239 215 205 214 217 210 186 155 141 142 151 152 136 137 140 144 143 141 143 143 146 139 134 137 136 135 139 138 138 129
357 355 9 18 18 14 14 15 18 16 8 9 357 298 209 212 206 194 168 140 142 139 142 145 144 147 152 150 149 148 143 138 136 134 135 138 138 134 136 138 144 143 130 131
354 2 7 15 13 15 10 13 23 25 31 37 55 79 154 151 139 134 134 137 151 150 144 148 143 140 146 144 140 134 134 131 123 131 136 136 139 136 140 147 144 135 135 136
359 8 8 11 13 19 16 23 26 51 47 48 67 86 111 120 128 130 133 134 132 142 139 139 144 142 142 137 133 134 130 131 137 131 131 129 132 135 140 136 136 145 143 163